Regional Weather Roundup
Issued by NWS Charleston, SC

Current Version | Previous Version | Graphics & Text | Print | Product List | Glossary On
Versions: 1 2 3 4 5 6 7 8 9 10 11 12 13 14 15 16 17 18 19 20 21 22 23 24 25 26 27 28 29 30 31 32 33 34 35 36 37 38 39 40 41 42 43 44 45 46 47 48 49 50
000
ASUS42 KCHS 010012
RWRCHS

REGIONAL WEATHER ROUNDUP
NATIONAL WEATHER SERVICE CHARLESTON SC
800 PM EDT MON AUG 31 2015

NOTE: "FAIR" INDICATES FEW OR NO CLOUDS BELOW 12,000 FEET WITH NO
SIGNIFICANT WEATHER AND/OR OBSTRUCTIONS TO VISIBILITY.

NOT ALL STATIONS ARE QUALITY CONTROLLED BY THE NATIONAL
WEATHER SERVICE. USE DATA WITH CAUTION...ESPECIALLY
DEWPOINT OBSERVATIONS.

SCZ027-030-031-034>040-042>050-010100-
...SOUTHEAST SOUTH CAROLINA...

CITY           SKY/WX    TMP DP  RH WIND       PRES   REMARKS
N CHARLESTON   MOCLDY    82  73  74 N6        30.04R
6HR MIN TEMP:  81; 6HR MAX TEMP:  87;

WATERFRONT PRK   N/A     86  76  72 CALM      30.01S HX  96
MOUNT PLEASANT LGT RAIN  81  75  83 CALM      30.04S
JOHNS ISLAND   MOCLDY    82  77  83 NW5       30.04R HX  91
PINOPOLIS        N/A     88  73  62 VRB2      29.97S HX  96
MONCKS CORNER  FAIR      79  73  83 CALM      30.05R
SUMMERVILLE    FAIR      79  75  89 SW3       30.06R
BEAUFORT MCAS  PTCLDY    80  74  81 NW3       30.05S
6HR MIN TEMP:  80; 6HR MAX TEMP:  86;

BEAUFORT ARPT  FAIR      81  73  78 NW3       30.04S
HILTON HEAD IS MOCLDY    81  75  83 CALM      30.06S
WALTERBORO     CLEAR     81  73  78 W3        30.06S
ALLENDALE      FAIR      77  72  83 CALM      30.05S

...SOUTHERN MIDLANDS AND PEE DEE...

CITY           SKY/WX    TMP DP  RH WIND       PRES   REMARKS
GEORGETOWN     NOT AVBL
KINGSTREE      NOT AVBL
ORANGEBURG     MOCLDY    80  72  76 SW3       30.05R
6HR MIN TEMP:  80; 6HR MAX TEMP:  85;

BARNWELL       FAIR      79  73  83 CALM      30.06S
AIKEN          NOT AVBL
MANNING        FAIR      77  72  83 CALM      30.05R
COLUMBIA       PTCLDY    82  68  62 W5        30.04R
6HR MIN TEMP:  82; 6HR MAX TEMP:  89;

SUMTER         CLEAR     80  70  71 E3        30.03R
6HR MIN TEMP:  80; 6HR MAX TEMP:  86;

FLORENCE       CLEAR     78  70  76 N3        30.05R
6HR MIN TEMP:  78; 6HR MAX TEMP:  85;

MYRTLE BEACH   NOT AVBL
N MYRTLE BEACH CLOUDY    77  75  93 NW3       30.03R
6HR MIN TEMP:  77; 6HR MAX TEMP:  82; 6HR PCP:  0.06;


$$

GAZ063-065-086>088-099>101-113>116-118-119-134>141-150-010100-
...SOUTHEAST GEORGIA...

CITY           SKY/WX    TMP DP  RH WIND       PRES   REMARKS
SAVANNAH ARPT  PTCLDY    80  72  76 N6        30.05S
6HR MIN TEMP:  80; 6HR MAX TEMP:  86;

HUNTER AAF     CLEAR     82  76  84 VRB1      30.03R
6HR MIN TEMP:  82; 6HR MAX TEMP:  87;

FORT STEWART   CLEAR     80  73  78 CALM      30.03S
6HR MIN TEMP:  80; 6HR MAX TEMP:  87;

STATESBORO     CLEAR     77  77 100 CALM      30.05F
SYLVANIA       CLEAR     77  76  95 CALM      30.07S
CLAXTON        NOT AVBL

...CSRA...CENTRAL AND FAR SOUTHEAST GEORGIA...

CITY           SKY/WX    TMP DP  RH WIND       PRES   REMARKS
THOMSON        CLEAR     77  74  91 CALM      30.11S
AUGUSTA-BUSH   CLEAR     77  71  82 CALM      30.05S
6HR MIN TEMP:  77; 6HR MAX TEMP:  85;

AUGUSTA-DANIEL CLEAR     86  68  54 CALM      30.07S
SWAINSBORO     FAIR      81  72  74 CALM      30.07S
VIDALIA        CLEAR     77  72  83 CALM      30.06F
EASTMAN        FAIR      81  73  77 E3        30.08S
HAZLEHURST     FAIR      82  72  72 NE3       30.04F
ALMA           CLEAR     82  72  71 VRB3      30.04S
6HR MIN TEMP:  82; 6HR MAX TEMP:  90;

WAYCROSS       CLEAR     85  77  77 CALM      30.04R HX  96
JESUP          FAIR      84  75  74 CALM      30.05S HX  92
BAXLEY         FAIR      82  73  74 NE5       30.05S
BRUNSWICK      PTCLDY    82  75  78 CALM      30.06S
SAINT SIMONS   PTCLDY    81  75  82 E7        30.04F
6HR MIN TEMP:  81; 6HR MAX TEMP:  86;


$$

SCZ027-028-034-036>038-045-046-048>050-GAZ119-141-010100-
...LAKE AND SUPPLEMENTAL COASTAL OBSERVATIONS...

STATION/POSITION TIME  TEMP    WIND        PRES    WAVE   SWELL
                       AIR SEA DIR/SP/G            HT/PER HT/PER/DIR
                 (UTC) (F)     (DEG/KT/KT) (MB)    (FT/S) (FT/S/D)
UPR LAKE MARION  NOT AVBL
WINYAH BAY       2245   81     290/  4     1016.0
LAKE MURRAY      2300   84     230/  5/  6 1016.6S
ACE BASIN NERRS  NOT AVBL
FORT PULASKI     2300   83 83  120/  5/  7 1017.9R
SAPELO ISLAND    2300   83     100/  4     1017.0S

$$

ANZ835-935-AMZ111-154-330-350-352-354-370-450-454-472-010100-
...C-MAN AND BUOY OBSERVATIONS...

STATION/POSITION TIME  TEMP    WIND        PRES    WAVE   SWELL
                       AIR SEA DIR/SP/G            HT/PER HT/PER/DIR
                 (UTC) (F)     (DEG/KT/KT) (MB)    (FT/S) (FT/S/D)
BUOY 41004       2350   81 83  230/ 10/ 12 1016.7R   4/ 9   3/ 9
BUOY 41008       2350   81 85  130/  6/  8 1017.5F   3/ 8   3/110/ 8
FOLLY BEACH CMAN 2300   81     220/  8/  9 1017.2R
CAPERS NEARSHORE 2308   82     240/ 10/ 14 1017.1R
FRIPP NEARSHORE  2300   83     210/ 10/ 12 1017.0R


STATION/POSITION TIME  TEMP    WIND        PRES    WAVE   SWELL
                       AIR SEA DIR/SP/G            HT/PER HT/PER/DIR
                 (UTC) (F)     (DEG/KT/KT) (MB)    (FT/S) (FT/S/D)
5E ST. MARYS GA  2321      86                N/A     3/ 8
FRYING PAN BUOY  2350   82 81  220/ 16/ 17 1016.9S   5/ 5   2/130/ 8
BUOY 41025       2350   81 84  160/ 16/ 17 1017.8F   4/ 9   3/130/ 9
CAPE LOOKOUT NC  2300   79     140/ 14/ 16 1017.3F
BUOY 41002       2350   84 84  210/ 14/ 16 1018.6F   4/ 6   2/140/ 8
BUOY 41010       2320   85 86  160/  6/  6 1018.1R
ST AUGUSTINE FL  0000   82 85  120/ 10/ 11 1018.2R


$$



USA.gov is the U.S. government's official web portal to all federal, state and local government web resources and services.